When you browse on this site, cookies collect data to enhance your experience and personalize the content and advertising you see.
Visit our Privacy Policy to learn more. By continuing to use the site, you agree to this use of cookies and data.
  • In Deutschland
  • Länderverzeichnis
  • Für 7 Tage
  • Wassertemperatur
  • Wetterkarte
  • Widgets
  • user-avatar
    Anmelden

    Stündliche Wetter Veere

    Heute, 23 Februar, Sonntag

    Zeit Temperatur Niederschläge Wind Luftdruck Luftfeuchtigkeit
    00:00 +8°C° 0 mm 10 m/S 765 mmHg 76%
    01:00 +7°C° 0.6 mm 10 m/S 764 mmHg 79%
    02:00 +7°C° 0.6 mm 10 m/S 764 mmHg 82%
    03:00 +7°C° 0.6 mm 9 m/S 763 mmHg 86%
    04:00 +7°C° 1.7 mm 9 m/S 762 mmHg 87%
    05:00 +7°C° 1.7 mm 9 m/S 761 mmHg 89%
    06:00 +7°C° 1.7 mm 8 m/S 760 mmHg 91%
    07:00 +8°C° 0.7 mm 12 m/S 759 mmHg 86%
    08:00 +10°C° 0.7 mm 15 m/S 758 mmHg 82%
    09:00 +11°C° 0.7 mm 18 m/S 757 mmHg 78%
    10:00 +11°C° 0 mm 18 m/S 757 mmHg 79%
    11:00 +11°C° 0 mm 18 m/S 758 mmHg 79%
    12:00 +11°C° 0 mm 18 m/S 758 mmHg 80%
    13:00 +10°C° 0.4 mm 16 m/S 759 mmHg 82%
    14:00 +10°C° 0.4 mm 13 m/S 759 mmHg 83%
    15:00 +9°C° 0.4 mm 11 m/S 760 mmHg 85%
    16:00 +8°C° 0.1 mm 11 m/S 761 mmHg 79%
    17:00 +7°C° 0.1 mm 10 m/S 763 mmHg 73%
    18:00 +6°C° 0.1 mm 9 m/S 764 mmHg 67%
    19:00 +5°C° 0 mm 8 m/S 765 mmHg 67%
    20:00 +5°C° 0 mm 7 m/S 766 mmHg 67%
    21:00 +4°C° 0 mm 6 m/S 767 mmHg 67%
    22:00 +4°C° 0 mm 6 m/S 767 mmHg 68%
    23:00 +5°C° 0 mm 5 m/S 768 mmHg 69%

    Morgen, 24 Februar, Montag

    Zeit Temperatur Niederschläge Wind Luftdruck Luftfeuchtigkeit
    00:00 +4°C° 0 mm 4 m/S 768 mmHg 71%
    01:00 +4°C° 0 mm 4 m/S 767 mmHg 71%
    02:00 +4°C° 0 mm 3 m/S 767 mmHg 71%
    03:00 +4°C° 0 mm 3 m/S 766 mmHg 71%
    04:00 +4°C° 0.1 mm 3 m/S 766 mmHg 73%
    05:00 +4°C° 0.1 mm 3 m/S 765 mmHg 74%
    06:00 +4°C° 0.1 mm 4 m/S 764 mmHg 76%
    07:00 +5°C° 0.4 mm 5 m/S 763 mmHg 81%
    08:00 +4°C° 0.4 mm 7 m/S 762 mmHg 86%
    09:00 +5°C° 0.4 mm 8 m/S 760 mmHg 90%
    10:00 +6°C° 0.1 mm 10 m/S 759 mmHg 86%
    11:00 +8°C° 0.1 mm 11 m/S 758 mmHg 82%
    12:00 +9°C° 0.1 mm 13 m/S 757 mmHg 78%
    13:00 +9°C° 0.1 mm 13 m/S 756 mmHg 78%
    14:00 +9°C° 0.1 mm 14 m/S 755 mmHg 77%
    15:00 +9°C° 0.1 mm 14 m/S 754 mmHg 77%
    16:00 +9°C° 0.7 mm 15 m/S 753 mmHg 79%
    17:00 +8°C° 0.7 mm 15 m/S 753 mmHg 82%
    18:00 +8°C° 0.7 mm 15 m/S 752 mmHg 85%
    19:00 +8°C° 0.2 mm 14 m/S 752 mmHg 83%
    20:00 +8°C° 0.2 mm 13 m/S 752 mmHg 82%
    21:00 +8°C° 0.2 mm 12 m/S 752 mmHg 81%
    22:00 +8°C° 0 mm 12 m/S 752 mmHg 78%
    23:00 +7°C° 0 mm 11 m/S 752 mmHg 74%

    übermorgen, 25 Februar, Dienstag

    Zeit Temperatur Niederschläge Wind Luftdruck Luftfeuchtigkeit
    00:00 +6°C° 0 mm 11 m/S 753 mmHg 71%
    01:00 +4°C° 0 mm 11 m/S 753 mmHg 70%
    02:00 +4°C° 0 mm 11 m/S 753 mmHg 69%
    03:00 +5°C° 0 mm 10 m/S 753 mmHg 69%
    04:00 +3°C° 0 mm 10 m/S 753 mmHg 68%
    05:00 +3°C° 0 mm 10 m/S 752 mmHg 67%
    06:00 +3°C° 0 mm 10 m/S 752 mmHg 66%
    07:00 +3°C° 0 mm 11 m/S 752 mmHg 66%
    08:00 +3°C° 0 mm 11 m/S 752 mmHg 66%
    09:00 +4°C° 0 mm 12 m/S 752 mmHg 65%
    10:00 +4°C° 0.1 mm 12 m/S 751 mmHg 63%
    11:00 +5°C° 0.1 mm 12 m/S 751 mmHg 61%
    12:00 +5°C° 0.1 mm 12 m/S 751 mmHg 58%
    13:00 +6°C° 0.1 mm 11 m/S 750 mmHg 58%
    14:00 +6°C° 0.1 mm 10 m/S 750 mmHg 58%
    15:00 +6°C° 0.1 mm 10 m/S 749 mmHg 59%
    16:00 +5°C° 0.1 mm 9 m/S 749 mmHg 62%
    17:00 +5°C° 0.1 mm 8 m/S 748 mmHg 65%
    18:00 +4°C° 0.1 mm 8 m/S 748 mmHg 69%
    19:00 +4°C° 0.4 mm 7 m/S 747 mmHg 73%
    20:00 +3°C° 0.4 mm 6 m/S 746 mmHg 78%
    21:00 +3°C° 0.4 mm 5 m/S 746 mmHg 83%
    22:00 +2°C° 1.1 mm 7 m/S 745 mmHg 84%
    23:00 +1°C° 1.1 mm 8 m/S 744 mmHg 86%

    26 Februar, Mittwoch

    Zeit Temperatur Niederschläge Wind Luftdruck Luftfeuchtigkeit
    00:00 0°C° 1.1 mm 10 m/S 744 mmHg 88%
    01:00 -1°C° 0.8 mm 11 m/S 744 mmHg 85%
    02:00 -1°C° 0.8 mm 12 m/S 743 mmHg 83%
    03:00 -1°C° 0.8 mm 13 m/S 743 mmHg 81%
    04:00 -1°C° 2.3 mm 12 m/S 744 mmHg 85%
    05:00 -1°C° 2.3 mm 11 m/S 744 mmHg 90%
    06:00 0°C° 2.3 mm 10 m/S 744 mmHg 95%
    07:00 0°C° 0.6 mm 10 m/S 746 mmHg 89%
    08:00 +1°C° 0.6 mm 10 m/S 747 mmHg 83%
    09:00 +2°C° 0.6 mm 10 m/S 748 mmHg 77%
    10:00 +2°C° 0.1 mm 10 m/S 749 mmHg 76%
    11:00 +2°C° 0.1 mm 10 m/S 750 mmHg 74%
    12:00 +3°C° 0.1 mm 9 m/S 751 mmHg 72%
    13:00 +3°C° 0 mm 9 m/S 752 mmHg 70%
    14:00 +3°C° 0 mm 9 m/S 753 mmHg 69%
    15:00 +3°C° 0 mm 9 m/S 753 mmHg 67%
    16:00 +3°C° 0.1 mm 9 m/S 754 mmHg 69%
    17:00 +2°C° 0.1 mm 8 m/S 754 mmHg 71%
    18:00 +2°C° 0.1 mm 8 m/S 755 mmHg 73%
    19:00 +2°C° 0.2 mm 8 m/S 756 mmHg 74%
    20:00 +1°C° 0.2 mm 8 m/S 756 mmHg 75%
    21:00 +1°C° 0.2 mm 8 m/S 757 mmHg 76%
    22:00 +1°C° 0.1 mm 8 m/S 757 mmHg 77%
    23:00 +2°C° 0.1 mm 7 m/S 757 mmHg 77%

    27 Februar, Donnerstag

    Zeit Temperatur Niederschläge Wind Luftdruck Luftfeuchtigkeit
    00:00 +2°C° 0.1 mm 7 m/S 758 mmHg 78%
    01:00 0°C° 0 mm 7 m/S 758 mmHg 78%
    02:00 0°C° 0 mm 7 m/S 758 mmHg 78%
    03:00 +1°C° 0 mm 6 m/S 758 mmHg 78%
    04:00 -1°C° 0 mm 6 m/S 758 mmHg 78%
    05:00 -1°C° 0 mm 6 m/S 758 mmHg 78%
    06:00 -1°C° 0 mm 6 m/S 757 mmHg 77%
    07:00 -1°C° 0 mm 7 m/S 757 mmHg 79%
    08:00 0°C° 0 mm 9 m/S 756 mmHg 80%
    09:00 +1°C° 0 mm 10 m/S 756 mmHg 81%
    10:00 -1°C° 0.6 mm 11 m/S 754 mmHg 86%
    11:00 -1°C° 0.6 mm 12 m/S 753 mmHg 90%
    12:00 -1°C° 0.6 mm 13 m/S 752 mmHg 95%
    13:00 0°C° 0.7 mm 12 m/S 750 mmHg 94%
    14:00 +2°C° 0.7 mm 12 m/S 749 mmHg 92%
    15:00 +3°C° 0.7 mm 11 m/S 748 mmHg 91%
    16:00 +4°C° 0.1 mm 11 m/S 748 mmHg 90%
    17:00 +6°C° 0.1 mm 11 m/S 747 mmHg 89%
    18:00 +8°C° 0.1 mm 11 m/S 747 mmHg 88%
    19:00 +7°C° 0 mm 11 m/S 747 mmHg 85%
    20:00 +7°C° 0 mm 11 m/S 748 mmHg 83%
    21:00 +6°C° 0 mm 11 m/S 749 mmHg 80%
    22:00 +6°C° 0 mm 10 m/S 749 mmHg 80%
    23:00 +6°C° 0 mm 10 m/S 750 mmHg 80%

    28 Februar, Freitag

    Zeit Temperatur Niederschläge Wind Luftdruck Luftfeuchtigkeit
    00:00 +5°C° 0 mm 10 m/S 750 mmHg 80%
    01:00 +5°C° 0 mm 9 m/S 750 mmHg 81%
    02:00 +5°C° 0 mm 9 m/S 750 mmHg 81%
    03:00 +5°C° 0 mm 9 m/S 750 mmHg 81%
    04:00 +5°C° 0 mm 8 m/S 750 mmHg 82%
    05:00 +5°C° 0 mm 8 m/S 751 mmHg 83%
    06:00 +4°C° 0 mm 7 m/S 751 mmHg 83%
    07:00 +4°C° 0.2 mm 6 m/S 751 mmHg 85%
    08:00 +4°C° 0.2 mm 6 m/S 751 mmHg 86%
    09:00 +5°C° 0.2 mm 5 m/S 751 mmHg 88%
    10:00 +5°C° 0.8 mm 4 m/S 750 mmHg 90%
    11:00 +5°C° 0.8 mm 3 m/S 750 mmHg 92%
    12:00 +6°C° 0.8 mm 2 m/S 750 mmHg 94%
    13:00 +6°C° 1.6 mm 4 m/S 749 mmHg 94%
    14:00 +7°C° 1.6 mm 5 m/S 748 mmHg 94%
    15:00 +8°C° 1.6 mm 6 m/S 747 mmHg 94%
    16:00 +9°C° 1.7 mm 8 m/S 746 mmHg 91%
    17:00 +8°C° 1.7 mm 10 m/S 746 mmHg 88%
    18:00 +8°C° 1.7 mm 12 m/S 745 mmHg 86%
    19:00 +8°C° 0.7 mm 12 m/S 744 mmHg 84%
    20:00 +9°C° 0.7 mm 12 m/S 743 mmHg 82%
    21:00 +9°C° 0.7 mm 12 m/S 743 mmHg 79%
    22:00 +9°C° 0.1 mm 12 m/S 742 mmHg 79%
    23:00 +8°C° 0.1 mm 12 m/S 741 mmHg 78%
    Mehr zeigen